Location: Unspecified
(0.0000°N, 0.0000°E)
Time: 20:59:15
(UTC+00:00)

STARLINK-11263 [DTC] - Visible Passes

Search period start: 06 March 2026 00:00
Search period end: 16 March 2026 00:00
Orbit: 359 x 360 km, 53.2° (Epoch: 6 March)

Date Brightness Start Highest point End Pass type
(mag) Time Alt. Az. Time Alt. Az. Time Alt. Az.
12 Mar 2.6 19:13:35 10° SSW 19:16:33 71° SE 19:17:03 54° ENE visible
13 Mar 5.7 19:43:47 10° W 19:45:22 14° NW 19:46:25 12° NNW visible
14 Mar 2.9 18:36:05 10° SW 18:39:04 76° NW 18:42:01 10° NNE visible
